Washington
Saturday 10:15 PM
Temperature43° (52°/28°)
Dew Point32°
Feels Like39°
Relative Humidity65
%
Visibility10
mi
Pressure1019.6
mb
Wind DirectionNNE
30°
Wind Speed7
mph
Precipitation Today0.00"

Last 30 Observations

Time PresWx Temp DP Feels RH% Vsby Pressure Ceiling Direction Speed 1h Precip
9:55 PM 43° 34° 39°70
%
10
mi
1019.7
mb
11,000
ft
NNE
20°
6
mph
0.00"
9:35 PM 41° 32° 37°70
%
10
mi
1019.7
mb
NE
40°
6
mph
0.00"
9:15 PM 45° 32° 42°61
%
10
mi
1019.7
mb
NNE
30°
5
mph
0.00"
8:55 PM 45° 34° 41°66
%
10
mi
1019.7
mb
N
10°
7
mph
0.00"
8:35 PM 45° 34° 41°66
%
10
mi
1019.7
mb
N
10°
6
mph
0.00"
8:15 PM 46° 34° 43°61
%
10
mi
1019.7
mb
N
10°
7
mph
0.00"
7:55 PM 46° 34° 42°61
%
10
mi
1019.3
mb
NNE
20°
8
mph
0.00"
7:35 PM 48° 32° 45°53
%
10
mi
1019.3
mb
NNE
20°
7
mph
0.00"
7:15 PM 48° 32° 45°53
%
10
mi
1019.7
mb
NNE
20°
8
mph
0.00"
6:55 PM 50° 32° 50
%
10
mi
1019.7
mb
NE
40°
6
mph
0.00"
6:35 PM 50° 30° 46
%
10
mi
1019.7
mb
NNE
20°
7
mph
0.00"
6:15 PM 50° 32° 50
%
10
mi
1019.7
mb
NE
50°
7
mph
0.00"
5:55 PM 50° 30° 46
%
10
mi
1019.7
mb
NE
50°
6
mph
0.00"
5:35 PM 50° 30° 46
%
10
mi
1019.3
mb
NE
50°
7
mph
0.00"
5:15 PM 50° 30° 46
%
10
mi
1019.3
mb
NE
50°
8
mph
0.00"
4:55 PM 52° 30° 43
%
10
mi
1019.3
mb
NE
40°
11
mph
0.00"
4:35 PM 52° 30° 43
%
10
mi
1019.7
mb
NNE
30°
10
mph
0.00"
4:15 PM 52° 32° 47
%
10
mi
1020.0
mb
Variable 7
mph
0.00"
3:55 PM 52° 32° 47
%
10
mi
1020.3
mb
NE
50°
9
mph
0.00"
3:35 PM 50° 32° 50
%
10
mi
1020.3
mb
Variable 6
mph
0.00"
3:15 PM 50° 34° 54
%
10
mi
1020.7
mb
NNE
20°
8
mph
0.00"
2:55 PM 48° 36° 44°62
%
10
mi
1020.7
mb
NNE
20°
9
mph
0.00"
2:35 PM 48° 34° 44°57
%
10
mi
1021.0
mb
N
10°
10
mph
0.00"
2:15 PM 46° 37° 41°71
%
10
mi
1021.3
mb
N
360°
11
mph
0.00"
1:55 PM 45° 41° 40°87
%
10
mi
1021.7
mb
NNE
20°
9
mph
0.00"
1:35 PM 43° 39° 37°87
%
10
mi
1022.0
mb
N
360°
9
mph
(G16)
0.00"
1:15 PM 43° 39° 37°87
%
10
mi
1022.4
mb
N
360°
9
mph
0.00"
12:55 PM 41° 39° 36°93
%
10
mi
1022.7
mb
NNW
330°
7
mph
0.00"
12:35 PM 39° 37° 34°93
%
10
mi
1023.0
mb
NW
320°
7
mph
0.00"
12:15 PM 37° 37° 29°100
%
10
mi
1023.4
mb
1,600
ft
NNW
340°
13
mph
0.00"